Roswell, NM

8:42 PM MDT on May 26, 2017 (GMT -0600)
Roswell Industrial

Weather History for KROW - September, 2013

Change the Weather History Date:

Sunday, September 29, 2013

  Actual Average Record
Temperature  
Mean Temperature 65 °F 67 °F  
Max Temperature 82 °F 81 °F 97 °F (1994)
Min Temperature 47 °F 53 °F 34 °F (1908)
Degree Days  
Heating Degree Days 0 1  
Month to date heating degree days 0 12  
Since 1 July heating degree days 0 12  
Cooling Degree Days 0 4  
Month to date cooling degree days 272 224  
Year to date cooling degree days 2136 1748  
Growing Degree Days 14 (Base 50)    
Moisture  
Dew Point 40 °F    
Average Humidity 48    
Maximum Humidity 77    
Minimum Humidity 18    
Precipitation  
Precipitation 0.00 in 0.05 in 1.74 in (1932)
Month to date precipitation 3.74 1.49  
Year to date precipitation 8.34 10.42  
Sea Level Pressure  
Sea Level Pressure 29.98 in    
Wind  
Wind Speed 5 mph (SSW)    
Max Wind Speed 12 mph    
Max Gust Speed 17 mph    
Visibility 10 miles    
Events      
T = Trace of Precipitation, MM = Missing Value Source: NWS Daily Summary

Daily Weather History Graph

Daily Weather History Graph

Search for Another Location

Airport or City:

Trip Planner

Search our weather history database for the weather conditions in past years. The results will help you decide how hot, cold, wet, or windy it might be!

Date:

Astronomy

Sep. 29, 2013 Rise Set
Actual Time 6:51 AM MDT 6:44 PM MDT
Civil Twilight 6:26 AM MDT 7:09 PM MDT
Nautical Twilight 5:57 AM MDT 7:38 PM MDT
Astronomical Twilight 5:28 AM MDT 8:07 PM MDT
Moon 1:48 AM MDT (9/29) 3:30 PM MDT (9/29)
Length of Visible Light 12h 43m
Length of Day
11h 53m
Waning Crescent, 26% of the Moon is Illuminated
Sep 29
Waning Crescent
Oct 4
New
Oct 11
First Quarter
Oct 18
Full
Oct 26
Last Quarter

Hourly Weather History & Observations

Time (MDT) Temp. Dew Point Humidity Pressure Visibility Wind Dir Wind Speed Gust Speed Precip Events Conditions
12:51 AM 55.9 °F 41.0 °F 57% 30.09 in 10.0 mi Calm Calm - N/A   Clear
1:51 AM 51.1 °F 42.1 °F 71% 30.09 in 10.0 mi WSW 5.8 mph - N/A   Clear
2:51 AM 53.1 °F 42.1 °F 66% 30.06 in 10.0 mi West 4.6 mph - N/A   Clear
3:51 AM 51.1 °F 42.1 °F 71% 30.05 in 10.0 mi WSW 3.5 mph - N/A   Clear
4:51 AM 50.0 °F 42.1 °F 74% 30.06 in 10.0 mi West 3.5 mph - N/A   Clear
5:51 AM 50.0 °F 42.1 °F 74% 30.06 in 10.0 mi Calm Calm - N/A   Clear
6:51 AM 48.0 °F 41.0 °F 77% 30.09 in 10.0 mi Calm Calm - N/A   Clear
7:51 AM 53.1 °F 43.0 °F 69% 30.09 in 10.0 mi Calm Calm - N/A   Clear
8:51 AM 57.9 °F 43.0 °F 58% 30.10 in 10.0 mi Calm Calm - N/A   Clear
9:51 AM 63.0 °F 42.1 °F 46% 30.09 in 10.0 mi Calm Calm - N/A   Clear
10:51 AM 68.0 °F 44.1 °F 42% 30.06 in 10.0 mi SSE 6.9 mph - N/A   Clear
11:51 AM 71.1 °F 43.0 °F 36% 30.04 in 10.0 mi South 6.9 mph - N/A   Clear
12:51 PM 75.0 °F 41.0 °F 29% 29.99 in 10.0 mi South 6.9 mph - N/A   Clear
1:51 PM 77.0 °F 37.0 °F 24% 29.96 in 10.0 mi South 6.9 mph - N/A   Clear
2:51 PM 79.0 °F 35.1 °F 20% 29.91 in 10.0 mi South 8.1 mph - N/A   Clear
3:51 PM 80.1 °F 33.1 °F 18% 29.89 in 10.0 mi South 9.2 mph - N/A   Clear
4:51 PM 81.0 °F 35.1 °F 19% 29.87 in 10.0 mi SSW 9.2 mph - N/A   Clear
5:51 PM 78.1 °F 35.1 °F 21% 29.87 in 10.0 mi South 10.4 mph - N/A   Clear
6:51 PM 73.0 °F 35.1 °F 25% 29.88 in 10.0 mi South 8.1 mph - N/A   Clear
7:51 PM 66.0 °F 37.0 °F 34% 29.89 in 10.0 mi SSW 8.1 mph - N/A   Clear
8:51 PM 63.0 °F 39.0 °F 41% 29.90 in 10.0 mi SW 9.2 mph - N/A   Clear
9:51 PM 61.0 °F 39.9 °F 46% 29.89 in 10.0 mi SW 3.5 mph - N/A   Clear
10:51 PM 59.0 °F 39.9 °F 49% 29.88 in 10.0 mi West 5.8 mph - N/A   Clear
11:51 PM 57.9 °F 39.0 °F 49% 29.88 in 10.0 mi WNW 4.6 mph - N/A   Clear